Location: Lombard
(41.8800°N, 88.0080°W)
Time: 21:08:07
(UTC-05:00)

ZACube-1 - Pass Details

Date: 17 May 2022
Orbit: 581 x 662 km, 97.6° (Epoch: 29 June)

Event Time Altitude Azimuth Distance (km) Brightness Sun altitude
Rises 04:42:52 0° 15° (NNE) 2,827 ? -8.3°
Reaches altitude 10° 04:45:03 10° 18° (NNE) 1,915 ? -8.0°
Maximum altitude 04:49:10 67° 101° (E) 635 ? -7.3°
Drops below altitude 10° 04:53:15 10° 184° (S) 1,891 ? -6.7°
Sets 04:55:24 0° 187° (S) 2,788 ? -6.4°
